Presure
257 383 378 413 378 364 370 390 343 343 334 349 354 393 332 399 261 244 246 228 222 259 264 241 217 210 203 206 209 206 210 221 226 200 211 203 194 170 176 177 187 195 195 124 127 135 140
206 266 357 371 374 371 364 391 390 355 350 368 356 375 314 365 264 224 231 239 209 217 226 257 236 229 224 216 216 204 207 181 212 221 223 223 220 203 222 132 151 174 180 186 196 131 154
226 252 316 364 349 341 365 376 371 374 368 350 367 359 277 340 332 250 231 245 225 232 216 206 231 243 236 149 227 221 210 196 194 200 209 164 199 230 251 249 222 201 199 201 196 200 178
243 223 255 361 355 346 332 362 357 360 375 339 375 362 368 318 397 250 244 242 252 244 231 210 215 232 250 244 235 222 213 209 221 229 225 207 188 207 216 231 254 254 256 235 232 196 170
200 256 261 267 362 344 332 331 336 330 337 362 363 283 350 249 364 304 212 215 221 237 215 209 223 215 217 229 231 237 239 236 237 234 225 200 229 236 225 218 231 257 259 258 247 200 184
184 207 232 244 294 354 336 329 334 330 344 347 361 382 313 201 353 388 241 250 248 255 206 209 208 198 212 229 226 229 230 235 234 229 228 199 230 228 247 244 241 221 207 222 208 240 262
184 155 213 217 242 293 344 330 326 324 343 357 381 439 435 326 317 373 338 252 254 265 220 196 227 217 229 228 229 239 251 243 244 161 239 219 177 236 235 240 232 255 244 245 250 249 83
199 156 214 231 217 242 298 337 347 337 333 348 346 358 325 271 286 358 344 308 258 263 242 256 244 244 256 244 222 254 262 255 252 255 244 246 251 252 250 247 252 255 252 258 267 270 273
140 146 184 176 226 207 238 258 341 333 335 340 309 310 270 306 339 205 345 316 268 265 263 250 239 237 245 233 243 246 256 257 254 251 255 257 236 240 227 231 239 238 245 262 275 305 309
195 190 143 161 165 181 218 212 246 349 338 326 337 330 292 264 349 343 329 346 307 284 256 254 244 270 241 234 235 254 248 236 217 228 221 218 221 241 231 247 245 256 281 299 368 373 356
140 162 203 138 143 170 221 208 216 237 347 336 335 339 355 298 302 266 338 335 305 265 260 208 260 259 249 248 221 215 222 225 224 233 227 239 239 241 245 253 274 372 336 329 323 327 321
181 183 138 134 136 143 152 208 233 192 215 235 346 341 342 335 338 311 273 309 251 304 283 273 263 228 218 226 233 223 238 238 243 250 251 255 256 289 343 335 321 326 319 304 291 287 287
166 185 146 131 150 146 138 180 140 174 160 248 186 257 344 342 342 341 341 326 314 286 240 264 240 239 245 248 252 257 260 263 261 304 345 331 325 322 305 297 298 285 293 276 278 270 271
176 164 158 183 179 177 181 218 127 145 143 209 261 151 219 152 258 359 351 349 357 349 362 365 368 372 369 341 355 335 327 326 318 303 299 281 278 288 271 269 271 285 273 260 259 258 273
179 174 181 188 152 143 193 200 190 193 184 138 157 166 255 161 157 147 230 245 156 227 270 323 299 323 327 319 291 290 292 284 290 292 282 279 268 246 274 276 235 267 255 260 255 263 265
175 194 170 189 172 196 141 176 176 121 147 162 161 172 146 244 148 150 142 148 207 209 218 229 227 253 252 195 193 237 184 148 197 177 229 201 151 232 229 226 227 268 261 275 261 244 253
184 183 166 175 173 143 187 165 122 131 130 131 131 165 219 225 182 148 200 223 169 169 157 156 196 170 215 231 219 206 206 224 180 150 151 195 155 176 245 153 151 230 151 174 239 196 250
179 164 190 152 181 162 135 183 208 148 134 136 134 173 201 191 216 201 215 161 159 150 161 142 158 181 167 196 168 171 168 197 210 212 223 228 232 234 236 240 205 288 285 277 276 275 267
178 168 162 176 174 180 186 174 190 178 152 145 123 145 131 134 141 214 196 228 224 221 244 177 157 160 225 165 177 185 179 190 179 166 181 164 208 210 212 216 223 232 233 237 264 273 285
155 170 168 173 163 165 189 177 161 152 172 187 141 136 125 123 135 135 134 158 149 216 210 215 233 275 177 181 197 241 202 194 181 176 196 194 203 195 199 165 170 195 199 219 208 209 231
152 161 163 160 180 167 177 185 180 192 181 146 175 183 153 121 137 150 180 172 138 143 157 167 192 198 249 251 224 178 234 255 227 168 233 165 210 146 174 179 174 181 199 191 172 205 194
164 174 151 168 185 171 158 189 176 163 180 170 181 179 190 193 130 153 194 141 139 134 131 127 171 134 218 205 189 146 135 135 201 176 257 124 231 226 235 241 170 200 178 164 195 164 165
170 162 152 167 169 152 168 169 175 172 171 178 168 176 186 182 194 186 155 134 169 153 152 147 191 128 125 125 156 142 196 133 240 241 256 262 258 252 243 179 225 239 250 251 253 255 252
158 163 155 162 161 177 158 160 169 173 176 156 166 173 172 184 190 185 193 181 188 184 160 195 179 168 146 174 153 176 130 140 135 140 135 137 132 134 143 210 247 247 202 228 238 236 250
124 152 153 142 155 150 159 174 149 170 168 166 164 179 178 186 184 182 179 191 195 186 201 188 188 190 172 197 141 130 139 210 167 171 133 157 149 197 225 279 260 256 251 247 243 237 230
160 121 152 142 149 165 148 157 155 158 162 158 142 179 167 189 184 171 181 180 183 192 185 191 186 196 180 208 165 145 203 199 198 176 185 214 225 220 131 218 211 233 274 266 258 258 256
153 153 156 131 147 161 148 158 149 169 165 151 163 169 175 175 184 177 172 173 175 182 191 185 192 205 177 186 187 192 195 198 189 177 169 124 189 119 206 199 237 157 181 240 242 290 289
162 163 171 163 140 160 150 161 153 149 162 150 175 165 156 174 169 180 177 187 169 174 183 187 178 184 192 187 192 186 173 196 192 194 207 204 177 205 216 206 180 203 252 202 203 226 243
159 167 158 158 155 143 126 161 127 164 135 162 173 154 163 170 163 175 174 172 185 161 171 177 183 184 171 184 189 182 190 182 197 195 186 212 201 196 166 192 206 179 173 229 238 230 253
Wind_Speed
117 85 86 43 48 51 40 9 33 27 26 29 33 36 60 60 95 84 81 87 63 75 93 95 93 89 85 84 81 84 82 83 87 90 90 93 91 81 82 83 87 89 87 55 54 53 56
88 126 91 78 71 58 50 35 13 27 17 21 25 29 56 57 91 64 79 82 60 66 66 89 90 90 90 86 84 81 80 80 80 83 85 86 86 91 95 62 70 80 81 83 87 52 62
99 118 107 79 73 77 64 41 27 20 17 15 21 30 40 55 77 87 75 80 73 70 61 58 65 83 83 52 84 85 79 79 79 80 79 70 75 79 77 81 100 93 93 93 88 89 76
132 102 122 77 69 69 74 67 59 49 23 21 18 33 38 55 58 82 79 79 80 60 58 51 56 67 75 78 80 82 81 80 83 84 82 79 77 79 79 79 78 81 85 97 98 88 74
87 131 120 126 65 69 70 70 60 58 43 26 13 18 32 36 52 81 47 42 47 46 54 52 60 56 58 64 66 71 76 77 79 79 81 75 79 80 78 75 76 76 79 80 85 66 74
74 96 96 116 113 67 71 70 62 55 49 36 22 20 32 27 45 57 63 69 64 60 51 39 50 43 51 56 57 62 65 69 74 76 77 71 81 76 78 76 74 69 72 71 69 72 82
69 57 101 96 115 110 67 70 65 63 50 47 38 29 44 40 30 46 68 68 61 70 46 38 49 48 47 53 56 60 64 67 72 49 77 71 60 74 68 71 66 78 77 80 85 85 6
92 53 104 117 95 113 97 66 58 56 57 58 48 55 43 33 32 41 55 62 61 62 45 45 42 44 47 47 44 49 57 62 64 68 68 72 77 76 77 73 74 78 71 76 79 80 82
42 47 71 75 111 92 106 115 58 61 58 59 41 37 30 27 32 20 44 51 54 52 46 33 34 35 39 38 39 36 39 46 50 49 55 58 50 54 49 53 60 64 67 74 82 80 79
89 78 44 56 62 77 98 89 107 52 54 53 47 40 31 26 26 25 32 35 42 41 30 27 26 34 28 24 21 28 25 17 32 27 36 42 46 44 52 57 59 64 75 73 21 12 12
37 52 89 40 44 62 101 83 87 99 50 54 47 44 45 27 23 21 19 23 31 21 17 18 16 18 14 13 22 27 27 29 31 29 35 39 42 46 50 52 58 1 6 4 9 17 19
71 73 33 35 38 42 48 89 102 67 85 93 46 45 41 36 32 18 25 18 22 20 19 26 10 17 18 20 21 22 23 24 28 35 40 45 48 40 5 0 3 9 14 18 15 17 21
54 72 37 28 42 47 37 63 41 63 53 89 67 80 41 35 28 24 19 14 7 6 18 9 13 11 11 15 21 30 35 41 41 21 11 10 2 10 12 14 17 16 19 14 15 10 10
61 44 43 67 62 61 56 98 31 40 39 80 97 44 77 42 72 26 27 24 20 18 17 15 16 19 21 16 15 17 24 24 21 21 20 13 18 17 15 11 16 17 16 6 4 9 11
61 57 61 69 34 33 68 73 60 69 60 31 42 44 76 40 38 33 69 70 34 36 35 37 35 38 34 35 38 37 33 30 26 21 20 17 11 8 12 11 15 16 6 11 9 15 14
56 73 53 69 51 69 25 54 54 23 36 35 36 44 30 62 29 28 25 24 55 55 57 59 55 51 48 30 30 42 25 13 16 10 16 11 2 7 6 4 4 13 10 7 9 4 13
65 61 47 52 53 21 62 44 16 17 25 23 23 33 80 86 47 21 54 48 30 27 20 18 45 30 43 43 37 30 31 38 16 5 4 20 5 4 12 10 12 3 16 14 0 12 7
55 42 64 25 55 38 10 56 71 29 15 18 16 44 58 47 71 53 74 28 24 13 25 9 14 27 19 31 14 15 13 28 33 33 34 34 34 34 34 36 5 20 15 16 17 14 8
51 42 35 51 51 54 57 46 56 44 28 15 9 16 12 14 19 61 44 77 74 69 74 13 16 16 33 15 17 14 11 18 13 6 12 2 23 23 24 25 28 29 28 29 25 22 15
34 39 40 46 36 38 59 45 29 21 36 48 10 5 5 7 11 9 8 20 17 63 49 56 71 47 12 13 22 35 18 14 2 4 17 16 20 15 16 10 6 10 13 23 17 16 26
26 34 34 32 54 35 47 51 47 54 42 16 35 41 16 7 3 10 34 21 4 7 18 20 37 43 59 62 42 24 25 30 22 11 27 6 21 5 12 8 13 10 17 6 12 18 8
37 45 19 40 55 42 28 55 43 25 36 32 38 36 46 48 6 12 41 4 3 4 4 5 19 2 61 39 34 4 2 4 16 12 25 12 24 25 25 24 12 17 18 19 17 21 22
39 34 23 38 38 23 39 39 37 37 33 35 28 33 43 34 48 38 16 9 24 9 11 9 29 10 8 7 11 4 36 6 50 43 34 28 26 24 23 18 25 25 25 24 23 21 21
36 35 31 34 31 44 27 33 36 36 40 20 26 30 26 37 44 32 39 29 34 26 11 41 20 16 10 17 10 20 11 9 9 8 8 8 10 10 12 20 27 26 17 26 27 26 28
25 32 33 19 34 22 30 40 17 35 32 30 26 35 36 42 34 31 27 34 38 28 47 25 27 32 15 26 14 13 9 47 7 20 15 12 11 23 35 23 24 26 25 26 25 26 27
45 29 36 28 26 38 23 31 27 30 32 28 17 39 28 45 37 24 33 28 31 41 27 31 27 40 17 55 15 10 47 43 29 17 19 51 57 45 19 44 38 48 25 24 24 23 24
45 45 45 31 31 45 35 35 28 41 37 26 36 36 39 34 40 32 28 26 26 30 44 31 43 55 24 31 27 33 28 34 25 22 25 23 19 28 35 23 61 15 25 35 36 27 27
55 54 59 54 40 50 36 50 36 36 37 24 39 35 25 37 34 37 36 45 29 28 31 33 26 33 44 41 31 26 25 40 30 34 58 47 25 43 64 37 28 21 60 20 19 43 37
63 62 55 55 54 45 35 54 35 49 30 42 48 33 38 40 32 41 36 34 47 28 30 31 31 33 26 37 36 27 34 27 45 45 29 68 55 43 36 31 52 34 34 59 61 55 31
Wind_Direction
25 21 29 42 40 41 41 87 181 189 205 205 199 185 203 192 206 211 213 219 213 219 219 218 222 224 226 230 230 232 234 237 239 237 239 239 242 240 240 242 248 247 247 236 233 242 245
19 27 27 36 47 45 39 41 155 187 174 180 193 180 197 189 203 208 213 215 212 214 210 219 222 225 227 229 230 230 233 233 237 240 243 243 246 245 245 233 240 244 246 249 251 240 247
25 30 29 34 40 46 43 42 73 90 194 191 179 169 191 191 193 205 207 217 209 217 209 213 218 224 227 222 231 233 235 235 236 237 240 239 245 249 251 251 249 250 253 253 253 254 249
28 29 30 36 41 45 46 50 58 61 84 103 166 174 183 185 182 203 207 214 219 211 209 210 217 223 227 228 231 234 237 239 242 245 247 242 245 247 249 253 257 256 256 254 254 253 246
26 29 33 32 44 44 51 48 54 51 49 60 128 91 170 186 183 193 202 203 210 200 201 209 215 219 224 226 230 234 239 242 245 246 246 246 253 255 253 254 258 263 264 263 264 254 251
29 30 34 35 36 46 49 52 50 57 51 58 79 117 146 49 181 182 204 214 218 220 202 212 214 220 228 231 234 238 240 243 245 245 248 244 254 259 261 264 265 260 256 261 259 265 269
26 39 33 38 37 39 46 47 52 52 62 72 69 103 122 154 166 170 188 211 216 224 200 213 217 218 227 229 236 241 244 244 246 232 250 250 241 260 265 267 270 273 270 271 272 269 239
31 40 37 37 41 38 43 48 57 60 63 67 87 97 119 144 158 160 184 193 211 217 203 219 219 223 231 230 231 242 244 247 249 250 253 257 259 263 265 269 272 273 270 274 276 271 271
44 42 38 43 38 43 42 43 53 52 65 70 72 93 103 103 145 120 176 189 208 214 217 207 203 210 219 227 233 241 248 249 251 256 261 266 256 260 252 257 264 261 266 272 276 281 280
32 33 44 44 47 47 43 49 47 59 61 62 69 80 80 99 125 143 171 177 196 209 202 204 204 235 216 219 224 247 247 237 228 240 239 243 247 270 257 266 268 273 277 279 294 315 329
38 44 35 46 47 45 42 46 52 50 63 64 70 77 87 80 81 105 146 165 191 181 191 171 207 221 208 222 210 222 228 230 238 249 249 263 263 265 268 277 281 138 317 17 64 53 45
36 35 52 48 50 46 53 43 44 56 56 54 70 75 82 84 92 85 101 128 125 182 194 212 193 182 205 214 220 231 246 251 266 277 280 281 283 283 173 103 19 49 82 94 93 74 63
28 35 44 49 50 48 53 50 65 55 59 53 63 59 77 82 92 99 104 110 129 144 133 187 163 181 221 255 271 277 281 282 284 287 94 114 99 96 97 81 79 85 96 98 89 64 33
30 32 41 34 38 44 47 43 63 59 66 51 51 67 65 70 66 86 82 84 90 92 101 106 112 106 106 105 102 78 81 80 86 85 85 102 98 87 121 116 88 72 95 110 75 71 34
25 26 26 34 41 46 44 46 51 46 47 63 54 53 52 67 70 74 68 67 88 88 89 91 91 90 85 91 87 83 82 88 85 86 90 94 112 280 81 78 291 78 124 78 68 46 51
20 10 20 23 37 31 51 41 46 58 59 49 48 49 76 56 66 63 62 66 71 68 65 59 62 73 78 92 90 81 92 114 80 87 79 87 170 73 75 91 77 94 87 77 64 44 45
7 13 18 28 32 37 32 38 58 63 58 55 59 51 44 50 57 82 54 54 58 85 95 96 67 70 63 64 68 72 70 67 79 144 164 66 180 128 64 247 250 96 256 265 242 269 48
6 23 13 18 21 38 44 32 26 37 68 60 59 50 49 49 49 54 52 49 58 96 49 89 85 58 57 74 62 56 53 73 58 53 51 52 56 58 57 58 5 64 70 62 59 48 53
359 12 23 18 16 19 17 30 21 31 40 53 42 46 55 68 69 47 53 48 54 50 51 49 52 47 40 32 32 87 85 75 74 56 79 338 37 43 47 44 43 47 51 52 52 53 46
5 5 9 6 21 13 7 24 34 24 31 34 30 54 16 41 38 83 85 46 65 48 52 51 47 48 16 4 35 33 16 12 59 294 46 37 33 34 31 285 278 34 34 29 21 34 40
1 0 5 7 353 8 6 11 13 12 21 11 32 29 35 4 30 45 42 37 66 69 55 50 47 48 47 44 40 36 26 26 20 351 14 346 5 266 273 301 305 325 355 335 285 4 349
334 335 2 351 345 358 12 354 4 11 19 19 22 27 28 29 317 9 39 341 311 224 213 232 39 124 39 43 41 25 254 271 15 1 15 309 8 3 2 3 326 346 283 290 324 290 291
322 326 343 337 344 355 350 352 354 357 359 8 13 14 16 31 23 27 9 291 29 337 1 327 29 242 245 261 23 289 38 229 36 32 19 7 5 4 1 326 351 355 0 0 4 7 4
313 319 325 329 333 332 340 345 344 349 353 347 349 1 8 10 9 23 23 12 23 22 342 28 357 4 298 335 336 17 229 281 246 272 231 253 257 274 292 343 356 355 331 348 352 351 359
287 308 309 285 322 307 326 331 333 337 339 343 347 349 352 355 1 8 9 15 14 16 11 19 16 20 334 22 288 248 294 26 349 319 261 351 277 29 18 350 353 349 351 351 345 339 336
295 289 301 287 305 312 315 315 320 321 325 330 292 337 339 345 347 348 355 357 360 1 7 11 359 9 351 11 317 275 18 26 18 312 334 23 25 24 254 21 26 22 347 347 343 337 332
291 293 296 284 293 303 298 303 295 315 314 308 319 325 327 330 336 336 335 340 343 349 351 355 358 358 337 352 355 358 14 20 352 302 299 251 336 242 3 5 20 300 341 16 8 333 328
283 285 290 291 290 294 294 302 291 292 305 291 312 311 310 319 321 329 327 331 326 330 338 344 339 347 351 342 355 348 316 0 356 355 6 6 303 5 11 354 315 341 6 337 352 8 5
280 281 281 283 287 287 282 296 276 298 281 298 302 305 306 308 308 314 314 314 326 307 317 326 335 337 324 339 338 329 348 332 353 356 351 359 358 354 300 341 4 317 314 4 356 357 352